Regional Weather Roundup
Issued by NWS

Home | Current Version | Previous Version | Graphics & Text | Print | Product List | Glossary On
Versions: 1 2 3 4 5 6 7 8 9 10 11 12 13 14 15 16 17 18 19 20 21 22 23 24 25 26 27
000
ASUS45 KSLC 151310
RWRUT

UTAH REGIONAL WEATHER ROUNDUP
NATIONAL WEATHER SERVICE SALT LAKE CITY UT
700 AM MDT TUE APR 15 2014

UTZ001>011-023>025-151400-

NORTHERN UTAH

CITY           SKY/WX    TMP DP  RH WIND       PRES   REMARKS
HILL AFB       CLOUDY    39   7  26 E13       30.04F WCI  32
LOGAN          CLEAR     32  19  58 CALM      30.05S
OGDEN          CLOUDY    38  11  32 S8        30.04S WCI  32
PROVO AIRPORT  CLOUDY    36  21  55 E5        30.08F WCI  32
SALT LAKE CITY CLOUDY    44  25  47 SE8       30.04F
VERNAL         MOCLDY    28  21  75 W3        30.13F
WENDOVER       CLOUDY    37  10  32 W6        30.02F WCI  33
HEBER CITY     MOCLDY    25  18  74 CALM      30.10F
WEST JORDAN    CLEAR     43  25  49 S12       30.05S

$$

UTZ012>022-026-027-151400-

SOUTHERN UTAH

CITY           SKY/WX    TMP DP  RH WIND       PRES   REMARKS
BRYCE CANYON   PTCLDY    15  10  80 W5        30.19S WCI   8
CEDAR CITY     PTCLDY    26   7  44 CALM      30.10F
MILFORD        PTCLDY    28   4  35 S9        30.08F WCI  19
MOAB/CYNLANDS  CLEAR     33  21  61 SE8       30.16F WCI  26
PRICE          MOCLDY    28  13  53 CALM      30.15F
ST GEORGE      PTSUNNY   46  10  23 S5        30.10S

$$

REGIONAL REPORTS     COLORADO/ARIZONA

CITY           SKY/WX    TMP DP  RH WIND       PRES   REMARKS
CRAIG, CO      PTCLDY    20  17  88 CALM      30.14F
GRAND JUNCTION CLEAR     31  21  66 E13       30.18F WCI  21
RIFLE          CLEAR     25  20  81 CALM      30.22S
MONTROSE       PTCLDY    27  18  69 S8        30.24R WCI  19
CORTEZ         CLEAR     18  13  80 NE7       30.20R WCI   9
PAGE, AZ       PTCLDY    40   8  26 CALM      30.14S
GRAND CANYON   PTCLDY    16  -1  47 E3        30.17F
KINGMAN        PTCLDY    48   1  14 E12       30.04F
FLAGSTAFF      PTCLDY    17   3  54 CALM      30.18S

$$

REGIONAL REPORTS    NEVADA/IDAHO/WYOMING

CITY           SKY/WX    TMP DP  RH WIND       PRES   REMARKS
LAS VEGAS, NV  MOCLDY    56  12  17 SW8       29.98S
ELY            CLOUDY    31   9  39 SE5       30.11S WCI  26
ELKO           MOCLDY    29  17  61 CALM      30.05F
POCATELLO, ID  CLEAR     49   8  19 S15       29.95F
BURLEY         CLEAR     45  10  24 S21       29.92F
EVANSTON, WY   MOCLDY    32  11  41 SW15      30.06F WCI  22
ROCK SPRINGS   CLOUDY    34   3  27 W9        30.03F WCI  27

$$



USA.gov is the U.S. government's official web portal to all federal, state and local government web resources and services.